DECAYED
Showing default

XPNAV-1, 41841 (Decayed)

Orbit data source: Space-Track

XPNAV-1, 41841 was a payload satellite owned by CAST (CN) in LEO that was launched on Wed, 09 Nov 2016 UTC via a CHANG ZHENG 11 launch vehicle from the Jiuquan Satellite Launch Center, China (JSC). Payload-class satellites include a variety of spacecraft equipped with specific instruments for various scientific and technological missions. These include communications satellites like Starlink; space stations such as the ISS; scientific satellites like the Hubble; Earth observation satellites from companies like Planet Labs, Umbra, and HawkEye 360; GPS; miniature CubeSats for education and research; and military/defense satellites.

Not visible in the next 10 days
Identifier
41841, 2016-066A
Orbit
Decayed
Last TLE update
4 weeks ago
Origin
Manufacturer
DFH Shenzhen
Mission
Decayed Civil Tech/Ast
Bus & Motor
XPNAV, Unknown motor
Mass
240 kg wet, 240 kg dry
Launch date (UTC)
2016-11-09 (9 years ago)
Launch vehicle
CHANG ZHENG 11
Launch site
Jiuquan Satellite Launch Center, China (JSC)
Object type
Payload
Rocket body
Debris
Shape & HBR
Box + 2 Pan, 1.5 m
Radar Cross Section
1.875 m², Medium (>0.1 m² and < 1m²)

Expand to show TLE details & history

TLE from 4 weeks ago
0 XPNAV-1
1 41841U 16066A   25162.34073850  .14626642  25244-5  31677-3 0  9993
2 41841  97.2943 199.9075 0010851 263.6962 110.8025 16.45985878479203
Epoch: 2025-06-11T08:10Z
TLE epoch observation values (Epoch: 2025-06-11T08:10:39.806Z)
Latitude
14.4629°
Longitude
175.43594°
Altitude
154.972 km
Speed
7.813 km/s
True Right ascension
13h 12m 06s
True Declination
14° 22' 20"
Sunlit
Object was in full shadow at epoch
Visualization orbit readout
Visualization observer readout
Orbital elements
Apogee altitude
153.803 km
Perigee altitude
139.642 km
Semi-major axis
6,524.86 km
Eccentricity
0.00109
Inclination
97.2943°
RAAN
199.9075°
Arg. of periapsis
263.6962°
True anomaly
Unknown
Mean anomaly
110.8025°
Eccentric anomaly
Unknown
Mean motion
4.118 °/min
Orbital period
87.42 mins
BSTAR
0.00031677
Loading maneuver chart data...
Loading SW <> Apogee altitude chart data...
Loading historical data...
Loading historical data...
Loading historical data...
Loading historical data...
Loading historical data...
Loading historical data...
Loading historical data...

XPNAV-1 Visibility

Observer location: undefined°, undefined°

This satellite is decayed
Span
Click to sort rows by Start time (UTC) header in descending order
Start Az.
Max El. time (UTC)
Max El. Az.
Max El.
End time (UTC)
End Az.
|